User: anonymous
Location: Los Gatos B&B
(42.6926°N, 77.0646°W)
Time: 06:22:03
(UTC-04:00)
Language:

Cosmos 2263 Rocket - Orbit

View from above orbital plane
View from above orbital plane
View from above satellite
View from above satellite

Ground track
Ground track

The orbit data is extracted from the following two-line orbital elements,

1 22803U 93059B   14265.36151923  .00000295  00000-0  17163-3 0  3787
2 22803 070.9913 194.0619 0015087 108.1527 252.1241 14.16670645 86822
Epoch (UTC): 22 September 2014 08:40:35
Eccentricity: 0.0015087
inclination: 70.9913°
perigee height: 826 km
apogee height: 847 km
right ascension of ascending node: 194.0619°
argument of perigee: 108.1527°
revolutions per day: 14.16670645
mean anomaly at epoch: 252.1241°
orbit number at epoch: 8682

The dashed part of the orbit path shows where the satellite is in the earth's shadow,  

DLR